Location: Chabot Space and Science Center
(37.8191°N, 122.1819°W)
Time: 08:09:20
(UTC-08:00)

ISS - Visible Passes

Search period start: 03 December 2021 00:00
Search period end: 13 December 2021 00:00
Orbit: 417 x 423 km, 51.6° (Epoch: 03 December)

Date Brightness Start Highest point End Pass type
(mag) Time Alt. Az. Time Alt. Az. Time Alt. Az.
03 Dec -1.5 17:32:13 10° N 17:33:43 12° NNE 17:35:08 10° NE visible
03 Dec -0.8 19:07:50 10° NW 19:08:08 12° NW 19:08:08 12° NW visible
04 Dec -2.6 18:20:46 10° NNW 18:23:12 29° N 18:23:12 29° N visible
05 Dec -2.3 17:33:45 10° NNW 17:36:28 22° NNE 17:38:28 14° ENE visible
05 Dec -1.2 19:10:11 10° WNW 19:11:29 21° WNW 19:11:29 21° WNW visible
06 Dec -3.8 18:22:51 10° NW 18:26:15 87° SW 18:27:03 50° SE visible
07 Dec -3.6 17:35:39 10° NW 17:39:00 53° NE 17:42:18 10° ESE visible
07 Dec -0.8 19:13:33 10° W 19:15:29 14° SW 19:16:05 14° SW visible
08 Dec -1.4 18:25:33 10° WNW 18:28:24 25° SW 18:31:14 10° S visible
09 Dec -2.5 17:38:00 10° WNW 17:41:16 45° SW 17:44:30 10° SSE visible
11 Dec -0.4 17:41:26 10° W 17:43:18 14° SW 17:45:10 10° SSW visible
